contact:dominique.lefevre@mio.osupytheas.fr, maurice.libes@osupytheas.fr, didier.mallarino@osupytheas.fr
Project:EMSO http://www.emso-fr.org/EMSO-France
Depth: 2436.0 m
Title:EMSO Ligure Ouest : Data MII capteur MICROCAT
DateTime_Computer,Latitude,Longitude,Temperature,Conductivity,Pressure,DateTime_Instrument
DateTime_Computer,Latitude,Longitude,degC,S m-1,dbar,DateTime_Instrument
2023-04-30T00:00:52Z,42.805,6.029,13.3035,4.60107,2470.67,2023-4-30T02:03:57Z
2023-04-30T00:03:55Z,42.805,6.029,13.3045,4.60114,2470.717,2023-4-30T02:07:00Z
2023-04-30T00:06:58Z,42.805,6.029,13.3034,4.60106,2470.693,2023-4-30T02:10:03Z
2023-04-30T00:10:01Z,42.805,6.029,13.3034,4.60110,2470.693,2023-4-30T02:13:06Z
2023-04-30T00:13:04Z,42.805,6.029,13.3038,4.60118,2470.693,2023-4-30T02:16:09Z
2023-04-30T00:16:08Z,42.805,6.029,13.3031,4.60117,2470.707,2023-4-30T02:19:12Z
2023-04-30T00:19:11Z,42.805,6.029,13.3036,4.60110,2470.67,2023-4-30T02:22:15Z
2023-04-30T00:22:14Z,42.805,6.029,13.3041,4.60110,2470.717,2023-4-30T02:25:19Z
2023-04-30T00:25:17Z,42.805,6.029,13.3051,4.60117,2470.693,2023-4-30T02:28:22Z
2023-04-30T00:28:20Z,42.805,6.029,13.3036,4.60112,2470.67,2023-4-30T02:31:25Z
2023-04-30T00:31:23Z,42.805,6.029,13.3032,4.60102,2470.73,2023-4-30T02:34:28Z
2023-04-30T00:34:26Z,42.805,6.029,13.3036,4.60125,2470.74,2023-4-30T02:37:31Z
2023-04-30T00:37:29Z,42.805,6.029,13.3041,4.60103,2470.754,2023-4-30T02:40:34Z
2023-04-30T00:40:32Z,42.805,6.029,13.3035,4.60122,2470.74,2023-4-30T02:43:37Z
2023-04-30T00:43:35Z,42.805,6.029,13.3037,4.60102,2470.73,2023-4-30T02:46:40Z
2023-04-30T00:46:38Z,42.805,6.029,13.3031,4.60117,2470.717,2023-4-30T02:49:43Z
2023-04-30T00:49:41Z,42.805,6.029,13.3038,4.60117,2470.693,2023-4-30T02:52:46Z
2023-04-30T00:52:45Z,42.805,6.029,13.3031,4.60107,2470.73,2023-4-30T02:55:49Z
2023-04-30T00:55:48Z,42.805,6.029,13.3039,4.60126,2470.717,2023-4-30T02:58:52Z
2023-04-30T00:58:51Z,42.805,6.029,13.3029,4.60106,2470.74,2023-4-30T03:01:56Z
2023-04-30T01:01:54Z,42.805,6.029,13.3042,4.60129,2470.74,2023-4-30T03:04:59Z
2023-04-30T01:04:57Z,42.805,6.029,13.3033,4.60099,2470.73,2023-4-30T03:08:02Z
2023-04-30T01:08:00Z,42.805,6.029,13.3035,4.60120,2470.717,2023-4-30T03:11:05Z
2023-04-30T01:11:03Z,42.805,6.029,13.3031,4.60096,2470.74,2023-4-30T03:14:08Z
2023-04-30T01:14:06Z,42.805,6.029,13.3034,4.60092,2470.73,2023-4-30T03:17:11Z
2023-04-30T01:17:09Z,42.805,6.029,13.3027,4.60089,2470.73,2023-4-30T03:20:14Z
2023-04-30T01:20:12Z,42.805,6.029,13.3046,4.60134,2470.693,2023-4-30T03:23:17Z
2023-04-30T01:23:15Z,42.805,6.029,13.3034,4.60119,2470.74,2023-4-30T03:26:20Z
2023-04-30T01:26:18Z,42.805,6.029,13.3034,4.60122,2470.74,2023-4-30T03:29:23Z
2023-04-30T01:29:21Z,42.805,6.029,13.3038,4.60102,2470.777,2023-4-30T03:32:26Z
2023-04-30T01:32:24Z,42.805,6.029,13.3049,4.60113,2470.74,2023-4-30T03:35:29Z
2023-04-30T01:35:28Z,42.805,6.029,13.3034,4.60103,2470.754,2023-4-30T03:38:32Z
2023-04-30T01:38:31Z,42.805,6.029,13.3029,4.60104,2470.754,2023-4-30T03:41:36Z
2023-04-30T01:41:34Z,42.805,6.029,13.3039,4.60114,2470.74,2023-4-30T03:44:39Z
2023-04-30T01:44:37Z,42.805,6.029,13.3034,4.60093,2470.74,2023-4-30T03:47:42Z
2023-04-30T01:47:40Z,42.805,6.029,13.3036,4.60093,2470.717,2023-4-30T03:50:45Z
2023-04-30T01:50:43Z,42.805,6.029,13.3046,4.60105,2470.717,2023-4-30T03:53:48Z
2023-04-30T01:53:46Z,42.805,6.029,13.3043,4.60079,2470.717,2023-4-30T03:56:51Z
2023-04-30T01:56:49Z,42.805,6.029,13.3030,4.60119,2470.74,2023-4-30T03:59:54Z
2023-04-30T01:59:52Z,42.805,6.029,13.3056,4.60122,2470.763,2023-4-30T04:02:57Z
2023-04-30T02:02:55Z,42.805,6.029,13.3036,4.60112,2470.74,2023-4-30T04:06:00Z
2023-04-30T02:05:58Z,42.805,6.029,13.3033,4.60096,2470.717,2023-4-30T04:09:03Z
2023-04-30T02:09:01Z,42.805,6.029,13.3036,4.60098,2470.777,2023-4-30T04:12:06Z
2023-04-30T02:12:05Z,42.805,6.029,13.3029,4.60107,2470.763,2023-4-30T04:15:09Z
2023-04-30T02:15:08Z,42.805,6.029,13.3029,4.60095,2470.74,2023-4-30T04:18:13Z
2023-04-30T02:18:11Z,42.805,6.029,13.3035,4.60110,2470.763,2023-4-30T04:21:16Z
2023-04-30T02:21:14Z,42.805,6.029,13.3036,4.60111,2470.777,2023-4-30T04:24:19Z
2023-04-30T02:24:17Z,42.805,6.029,13.3032,4.60110,2470.754,2023-4-30T04:27:22Z
2023-04-30T02:27:20Z,42.805,6.029,13.3037,4.60120,2470.763,2023-4-30T04:30:25Z
2023-04-30T02:30:23Z,42.805,6.029,13.3036,4.60119,2470.777,2023-4-30T04:33:28Z
2023-04-30T02:33:26Z,42.805,6.029,13.3029,4.60132,2470.754,2023-4-30T04:36:31Z
2023-04-30T02:36:29Z,42.805,6.029,13.3042,4.60097,2470.763,2023-4-30T04:39:34Z
2023-04-30T02:39:32Z,42.805,6.029,13.3039,4.60104,2470.763,2023-4-30T04:42:37Z
2023-04-30T02:42:35Z,42.805,6.029,13.3035,4.60133,2470.763,2023-4-30T04:45:40Z
2023-04-30T02:45:38Z,42.805,6.029,13.3032,4.60095,2470.763,2023-4-30T04:48:43Z
2023-04-30T02:48:42Z,42.805,6.029,13.3036,4.60112,2470.763,2023-4-30T04:51:46Z
2023-04-30T02:51:45Z,42.805,6.029,13.3026,4.60101,2470.8,2023-4-30T04:54:50Z
2023-04-30T02:54:48Z,42.805,6.029,13.3026,4.60088,2470.754,2023-4-30T04:57:53Z
2023-04-30T02:57:51Z,42.805,6.029,13.3023,4.60105,2470.777,2023-4-30T05:00:56Z
2023-04-30T03:00:54Z,42.805,6.029,13.3029,4.60105,2470.787,2023-4-30T05:03:59Z
2023-04-30T03:03:57Z,42.805,6.029,13.3034,4.60097,2470.75,2023-4-30T05:07:02Z
2023-04-30T03:07:00Z,42.805,6.029,13.3034,4.60110,2470.787,2023-4-30T05:10:05Z
2023-04-30T03:10:03Z,42.805,6.029,13.3045,4.60123,2470.754,2023-4-30T05:13:08Z
2023-04-30T03:13:06Z,42.805,6.029,13.3029,4.60099,2470.74,2023-4-30T05:16:11Z
2023-04-30T03:16:09Z,42.805,6.029,13.3042,4.60117,2470.763,2023-4-30T05:19:14Z
2023-04-30T03:19:12Z,42.805,6.029,13.3036,4.60099,2470.763,2023-4-30T05:22:17Z
2023-04-30T03:22:15Z,42.805,6.029,13.3037,4.60116,2470.763,2023-4-30T05:25:20Z
2023-04-30T03:25:18Z,42.805,6.029,13.3037,4.60122,2470.763,2023-4-30T05:28:23Z
2023-04-30T03:28:22Z,42.805,6.029,13.3046,4.60127,2470.763,2023-4-30T05:31:26Z
2023-04-30T03:31:25Z,42.805,6.029,13.3034,4.60101,2470.763,2023-4-30T05:34:30Z
2023-04-30T03:34:28Z,42.805,6.029,13.3024,4.60090,2470.787,2023-4-30T05:37:33Z
2023-04-30T03:37:31Z,42.805,6.029,13.3030,4.60100,2470.777,2023-4-30T05:40:36Z
2023-04-30T03:40:34Z,42.805,6.029,13.3045,4.60122,2470.777,2023-4-30T05:43:39Z
2023-04-30T03:43:37Z,42.805,6.029,13.3034,4.60111,2470.81,2023-4-30T05:46:42Z
2023-04-30T03:46:40Z,42.805,6.029,13.3034,4.60106,2470.81,2023-4-30T05:49:45Z
2023-04-30T03:49:43Z,42.805,6.029,13.3034,4.60111,2470.763,2023-4-30T05:52:48Z
2023-04-30T03:52:46Z,42.805,6.029,13.3028,4.60104,2470.787,2023-4-30T05:55:51Z
2023-04-30T03:55:49Z,42.805,6.029,13.3027,4.60104,2470.8,2023-4-30T05:58:54Z
2023-04-30T03:58:52Z,42.805,6.029,13.3034,4.60105,2470.763,2023-4-30T06:01:57Z
2023-04-30T04:01:55Z,42.805,6.029,13.3028,4.60096,2470.763,2023-4-30T06:05:00Z
2023-04-30T04:04:59Z,42.805,6.029,13.3030,4.60095,2470.796,2023-4-30T06:08:03Z
2023-04-30T04:08:02Z,42.805,6.029,13.3043,4.60099,2470.754,2023-4-30T06:11:07Z
2023-04-30T04:11:05Z,42.805,6.029,13.3032,4.60094,2470.8,2023-4-30T06:14:10Z
2023-04-30T04:14:08Z,42.805,6.029,13.3033,4.60110,2470.8,2023-4-30T06:17:13Z
2023-04-30T04:17:11Z,42.805,6.029,13.3029,4.60085,2470.8,2023-4-30T06:20:16Z
2023-04-30T04:20:14Z,42.805,6.029,13.3028,4.60107,2470.787,2023-4-30T06:23:19Z
2023-04-30T04:23:17Z,42.805,6.029,13.3032,4.60125,2470.787,2023-4-30T06:26:22Z
2023-04-30T04:26:20Z,42.805,6.029,13.3036,4.60103,2470.787,2023-4-30T06:29:25Z
2023-04-30T04:29:23Z,42.805,6.029,13.3021,4.60103,2470.8,2023-4-30T06:32:28Z
2023-04-30T04:32:27Z,42.805,6.029,13.3036,4.60113,2470.787,2023-4-30T06:35:32Z
2023-04-30T04:35:30Z,42.805,6.029,13.3031,4.60090,2470.787,2023-4-30T06:38:35Z
2023-04-30T04:38:33Z,42.805,6.029,13.3029,4.60102,2470.763,2023-4-30T06:41:38Z
2023-04-30T04:41:36Z,42.805,6.029,13.3029,4.60111,2470.787,2023-4-30T06:44:41Z
2023-04-30T04:44:39Z,42.805,6.029,13.3036,4.60115,2470.787,2023-4-30T06:47:44Z
2023-04-30T04:47:42Z,42.805,6.029,13.3022,4.60100,2470.787,2023-4-30T06:50:47Z
2023-04-30T04:50:45Z,42.805,6.029,13.3033,4.60106,2470.763,2023-4-30T06:53:50Z
2023-04-30T04:53:48Z,42.805,6.029,13.3033,4.60111,2470.74,2023-4-30T06:56:53Z
2023-04-30T04:56:51Z,42.805,6.029,13.3037,4.60095,2470.8,2023-4-30T06:59:56Z
2023-04-30T04:59:54Z,42.805,6.029,13.3028,4.60103,2470.74,2023-4-30T07:02:59Z
2023-04-30T05:02:57Z,42.805,6.029,13.3033,4.60106,2470.74,2023-4-30T07:06:02Z
2023-04-30T05:06:00Z,42.805,6.029,13.3032,4.60129,2470.763,2023-4-30T07:09:05Z
2023-04-30T05:09:03Z,42.805,6.029,13.3030,4.60112,2470.777,2023-4-30T07:12:08Z
2023-04-30T05:12:07Z,42.805,6.029,13.3026,4.60091,2470.754,2023-4-30T07:15:12Z
2023-04-30T05:15:10Z,42.805,6.029,13.3031,4.60127,2470.777,2023-4-30T07:18:15Z
2023-04-30T05:18:13Z,42.805,6.029,13.3030,4.60113,2470.8,2023-4-30T07:21:18Z
2023-04-30T05:21:16Z,42.805,6.029,13.3033,4.60113,2470.763,2023-4-30T07:24:21Z
2023-04-30T05:24:19Z,42.805,6.029,13.3024,4.60097,2470.777,2023-4-30T07:27:24Z
2023-04-30T05:27:22Z,42.805,6.029,13.3031,4.60118,2470.717,2023-4-30T07:30:27Z
2023-04-30T05:30:25Z,42.805,6.029,13.3029,4.60101,2470.763,2023-4-30T07:33:30Z
2023-04-30T05:33:28Z,42.805,6.029,13.3034,4.60110,2470.763,2023-4-30T07:36:33Z
2023-04-30T05:36:31Z,42.805,6.029,13.3034,4.60099,2470.763,2023-4-30T07:39:36Z
2023-04-30T05:39:34Z,42.805,6.029,13.3036,4.60110,2470.763,2023-4-30T07:42:39Z
2023-04-30T05:42:37Z,42.805,6.029,13.3040,4.60099,2470.787,2023-4-30T07:45:42Z
2023-04-30T05:45:40Z,42.805,6.029,13.3038,4.60099,2470.763,2023-4-30T07:48:45Z
2023-04-30T05:48:44Z,42.805,6.029,13.3039,4.60101,2470.777,2023-4-30T07:51:49Z
2023-04-30T05:51:47Z,42.805,6.029,13.3026,4.60081,2470.763,2023-4-30T07:54:52Z
2023-04-30T05:54:50Z,42.805,6.029,13.3034,4.60104,2470.74,2023-4-30T07:57:55Z
2023-04-30T05:57:53Z,42.805,6.029,13.3039,4.60104,2470.763,2023-4-30T08:00:58Z
2023-04-30T06:00:56Z,42.805,6.029,13.3025,4.60107,2470.73,2023-4-30T08:04:01Z
2023-04-30T06:03:59Z,42.805,6.029,13.3038,4.60108,2470.787,2023-4-30T08:07:04Z
2023-04-30T06:07:02Z,42.805,6.029,13.3051,4.60113,2470.777,2023-4-30T08:10:07Z
2023-04-30T06:10:05Z,42.805,6.029,13.3028,4.60114,2470.707,2023-4-30T08:13:10Z
2023-04-30T06:13:08Z,42.805,6.029,13.3028,4.60101,2470.777,2023-4-30T08:16:13Z
2023-04-30T06:16:11Z,42.805,6.029,13.3028,4.60084,2470.74,2023-4-30T08:19:16Z
2023-04-30T06:19:14Z,42.805,6.029,13.3033,4.60102,2470.74,2023-4-30T08:22:19Z
2023-04-30T06:22:17Z,42.805,6.029,13.3034,4.60099,2470.717,2023-4-30T08:25:22Z
2023-04-30T06:25:21Z,42.805,6.029,13.3029,4.60105,2470.763,2023-4-30T08:28:26Z
2023-04-30T06:28:24Z,42.805,6.029,13.3034,4.60106,2470.777,2023-4-30T08:31:29Z
2023-04-30T06:31:27Z,42.805,6.029,13.3031,4.60093,2470.717,2023-4-30T08:34:32Z
2023-04-30T06:34:30Z,42.805,6.029,13.3041,4.60102,2470.74,2023-4-30T08:37:35Z
2023-04-30T06:37:33Z,42.805,6.029,13.3039,4.60110,2470.717,2023-4-30T08:40:38Z
2023-04-30T06:40:36Z,42.805,6.029,13.3029,4.60099,2470.74,2023-4-30T08:43:41Z
2023-04-30T06:43:39Z,42.805,6.029,13.3028,4.60107,2470.74,2023-4-30T08:46:44Z
2023-04-30T06:46:42Z,42.805,6.029,13.3033,4.60109,2470.717,2023-4-30T08:49:47Z
2023-04-30T06:49:45Z,42.805,6.029,13.3026,4.60092,2470.73,2023-4-30T08:52:50Z
2023-04-30T06:52:48Z,42.805,6.029,13.3029,4.60098,2470.754,2023-4-30T08:55:53Z
2023-04-30T06:55:51Z,42.805,6.029,13.3027,4.60102,2470.74,2023-4-30T08:58:56Z
2023-04-30T06:58:54Z,42.805,6.029,13.3031,4.60107,2470.717,2023-4-30T09:01:59Z
2023-04-30T07:01:57Z,42.805,6.029,13.3031,4.60107,2470.763,2023-4-30T09:05:03Z
2023-04-30T07:05:01Z,42.805,6.029,13.3034,4.60103,2470.754,2023-4-30T09:08:06Z
2023-04-30T07:08:04Z,42.805,6.029,13.3029,4.60097,2470.754,2023-4-30T09:11:09Z
2023-04-30T07:11:07Z,42.805,6.029,13.3030,4.60104,2470.693,2023-4-30T09:14:12Z
2023-04-30T07:14:10Z,42.805,6.029,13.3033,4.60103,2470.754,2023-4-30T09:17:15Z
2023-04-30T07:17:13Z,42.805,6.029,13.3024,4.60110,2470.754,2023-4-30T09:20:18Z
2023-04-30T07:20:16Z,42.805,6.029,13.3029,4.60103,2470.717,2023-4-30T09:23:21Z
2023-04-30T07:23:19Z,42.805,6.029,13.3036,4.60096,2470.717,2023-4-30T09:26:24Z
2023-04-30T07:26:22Z,42.805,6.029,13.3037,4.60098,2470.693,2023-4-30T09:29:27Z
2023-04-30T07:29:25Z,42.805,6.029,13.3030,4.60089,2470.73,2023-4-30T09:32:30Z
2023-04-30T07:32:28Z,42.805,6.029,13.3022,4.60087,2470.707,2023-4-30T09:35:33Z
2023-04-30T07:35:31Z,42.805,6.029,13.3024,4.60094,2470.693,2023-4-30T09:38:36Z
2023-04-30T07:38:34Z,42.805,6.029,13.3035,4.60092,2470.707,2023-4-30T09:41:39Z
2023-04-30T07:41:38Z,42.805,6.029,13.3025,4.60099,2470.693,2023-4-30T09:44:43Z
2023-04-30T07:44:41Z,42.805,6.029,13.3034,4.60104,2470.717,2023-4-30T09:47:46Z
2023-04-30T07:47:44Z,42.805,6.029,13.3028,4.60098,2470.679,2023-4-30T09:50:49Z
2023-04-30T07:50:47Z,42.805,6.029,13.3027,4.60090,2470.707,2023-4-30T09:53:52Z
2023-04-30T07:53:50Z,42.805,6.029,13.3028,4.60092,2470.693,2023-4-30T09:56:55Z
2023-04-30T07:56:53Z,42.805,6.029,13.3026,4.60090,2470.693,2023-4-30T09:59:58Z
2023-04-30T07:59:56Z,42.805,6.029,13.3026,4.60103,2470.73,2023-4-30T10:03:01Z
2023-04-30T08:02:59Z,42.805,6.029,13.3023,4.60088,2470.73,2023-4-30T10:06:04Z
2023-04-30T08:06:02Z,42.805,6.029,13.3029,4.60098,2470.717,2023-4-30T10:09:07Z
2023-04-30T08:09:05Z,42.805,6.029,13.3029,4.60097,2470.693,2023-4-30T10:12:10Z
2023-04-30T08:12:08Z,42.805,6.029,13.3030,4.60104,2470.67,2023-4-30T10:15:13Z
2023-04-30T08:15:11Z,42.805,6.029,13.3031,4.60117,2470.67,2023-4-30T10:18:16Z
2023-04-30T08:18:14Z,42.805,6.029,13.3041,4.60101,2470.707,2023-4-30T10:21:20Z
2023-04-30T08:21:18Z,42.805,6.029,13.3034,4.60104,2470.693,2023-4-30T10:24:23Z
2023-04-30T08:24:21Z,42.805,6.029,13.3040,4.60100,2470.684,2023-4-30T10:27:26Z
2023-04-30T08:27:24Z,42.805,6.029,13.3036,4.60097,2470.67,2023-4-30T10:30:29Z
2023-04-30T08:30:26Z,42.805,6.029,13.3034,4.60101,2470.684,2023-4-30T10:33:31Z
2023-04-30T08:33:29Z,42.805,6.029,13.3029,4.60106,2470.684,2023-4-30T10:36:34Z
2023-04-30T08:36:32Z,42.805,6.029,13.3029,4.60106,2470.684,2023-4-30T10:39:37Z
2023-04-30T08:39:35Z,42.805,6.029,13.3029,4.60086,2470.67,2023-4-30T10:42:40Z
2023-04-30T08:42:38Z,42.805,6.029,13.3024,4.60092,2470.684,2023-4-30T10:45:43Z
2023-04-30T08:45:42Z,42.805,6.029,13.3021,4.60089,2470.684,2023-4-30T10:48:47Z
2023-04-30T08:48:45Z,42.805,6.029,13.3024,4.60095,2470.67,2023-4-30T10:51:50Z
2023-04-30T08:51:48Z,42.805,6.029,13.3023,4.60099,2470.67,2023-4-30T10:54:53Z
2023-04-30T08:54:51Z,42.805,6.029,13.3030,4.60103,2470.646,2023-4-30T10:57:56Z
2023-04-30T08:57:54Z,42.805,6.029,13.3025,4.60095,2470.67,2023-4-30T11:00:59Z
2023-04-30T09:00:57Z,42.805,6.029,13.3036,4.60107,2470.67,2023-4-30T11:04:02Z
2023-04-30T09:04:00Z,42.805,6.029,13.3024,4.60094,2470.661,2023-4-30T11:07:05Z
2023-04-30T09:07:03Z,42.805,6.029,13.3031,4.60112,2470.67,2023-4-30T11:10:08Z
2023-04-30T09:10:06Z,42.805,6.029,13.3031,4.60087,2470.646,2023-4-30T11:13:11Z
2023-04-30T09:13:09Z,42.805,6.029,13.3031,4.60104,2470.67,2023-4-30T11:16:14Z
2023-04-30T09:16:12Z,42.805,6.029,13.3034,4.60110,2470.646,2023-4-30T11:19:17Z
2023-04-30T09:19:15Z,42.805,6.029,13.3028,4.60104,2470.684,2023-4-30T11:22:21Z
2023-04-30T09:22:19Z,42.805,6.029,13.3036,4.60097,2470.67,2023-4-30T11:25:24Z
2023-04-30T09:25:22Z,42.805,6.029,13.3037,4.60108,2470.684,2023-4-30T11:28:27Z
2023-04-30T09:28:25Z,42.805,6.029,13.3028,4.60091,2470.67,2023-4-30T11:31:30Z
2023-04-30T09:31:28Z,42.805,6.029,13.3033,4.60102,2470.624,2023-4-30T11:34:33Z
2023-04-30T09:34:31Z,42.805,6.029,13.3029,4.60085,2470.67,2023-4-30T11:37:36Z
2023-04-30T09:37:34Z,42.805,6.029,13.3036,4.60099,2470.67,2023-4-30T11:40:39Z
2023-04-30T09:40:37Z,42.805,6.029,13.3035,4.60106,2470.646,2023-4-30T11:43:42Z
2023-04-30T09:43:40Z,42.805,6.029,13.3032,4.60108,2470.646,2023-4-30T11:46:45Z
2023-04-30T09:46:43Z,42.805,6.029,13.3031,4.60109,2470.624,2023-4-30T11:49:48Z
2023-04-30T09:49:46Z,42.805,6.029,13.3036,4.60092,2470.624,2023-4-30T11:52:51Z
2023-04-30T09:52:49Z,42.805,6.029,13.3036,4.60110,2470.646,2023-4-30T11:55:54Z
2023-04-30T09:55:52Z,42.805,6.029,13.3036,4.60114,2470.684,2023-4-30T11:58:58Z
2023-04-30T09:58:56Z,42.805,6.029,13.3031,4.60093,2470.624,2023-4-30T12:02:01Z
2023-04-30T10:01:59Z,42.805,6.029,13.3032,4.60104,2470.67,2023-4-30T12:05:04Z
2023-04-30T10:05:02Z,42.805,6.029,13.3020,4.60101,2470.624,2023-4-30T12:08:07Z
2023-04-30T10:08:05Z,42.805,6.029,13.3039,4.60107,2470.624,2023-4-30T12:11:10Z
2023-04-30T10:11:08Z,42.805,6.029,13.3035,4.60110,2470.661,2023-4-30T12:14:13Z
2023-04-30T10:14:11Z,42.805,6.029,13.3027,4.60092,2470.646,2023-4-30T12:17:16Z
2023-04-30T10:17:14Z,42.805,6.029,13.3041,4.60115,2470.646,2023-4-30T12:20:19Z
2023-04-30T10:20:17Z,42.805,6.029,13.3030,4.60100,2470.624,2023-4-30T12:23:22Z
2023-04-30T10:23:20Z,42.805,6.029,13.3041,4.60094,2470.646,2023-4-30T12:26:25Z
2023-04-30T10:26:23Z,42.805,6.029,13.3029,4.60087,2470.661,2023-4-30T12:29:28Z
2023-04-30T10:29:26Z,42.805,6.029,13.3026,4.60086,2470.624,2023-4-30T12:32:31Z
2023-04-30T10:32:29Z,42.805,6.029,13.3028,4.60093,2470.624,2023-4-30T12:35:35Z
2023-04-30T10:35:33Z,42.805,6.029,13.3041,4.60112,2470.624,2023-4-30T12:38:38Z
2023-04-30T10:38:36Z,42.805,6.029,13.3021,4.60084,2470.624,2023-4-30T12:41:41Z
2023-04-30T10:41:39Z,42.805,6.029,13.3038,4.60104,2470.656,2023-4-30T12:44:44Z
2023-04-30T10:44:42Z,42.805,6.029,13.3021,4.60087,2470.646,2023-4-30T12:47:47Z
2023-04-30T10:47:45Z,42.805,6.029,13.3033,4.60104,2470.624,2023-4-30T12:50:50Z
2023-04-30T10:50:48Z,42.805,6.029,13.3034,4.60116,2470.637,2023-4-30T12:53:53Z
2023-04-30T10:53:51Z,42.805,6.029,13.3033,4.60094,2470.646,2023-4-30T12:56:56Z
2023-04-30T10:56:54Z,42.805,6.029,13.3036,4.60099,2470.624,2023-4-30T12:59:59Z
2023-04-30T10:59:57Z,42.805,6.029,13.3030,4.60093,2470.624,2023-4-30T13:03:02Z
2023-04-30T11:03:00Z,42.805,6.029,13.3037,4.60105,2470.637,2023-4-30T13:06:05Z
2023-04-30T11:06:03Z,42.805,6.029,13.3034,4.60110,2470.661,2023-4-30T13:09:09Z
2023-04-30T11:09:06Z,42.805,6.029,13.3029,4.60110,2470.624,2023-4-30T13:12:12Z
2023-04-30T11:12:10Z,42.805,6.029,13.3045,4.60102,2470.624,2023-4-30T13:15:15Z
2023-04-30T11:15:13Z,42.805,6.029,13.3031,4.60104,2470.6,2023-4-30T13:18:18Z
2023-04-30T11:18:16Z,42.805,6.029,13.3029,4.60094,2470.646,2023-4-30T13:21:21Z
2023-04-30T11:21:19Z,42.805,6.029,13.3031,4.60104,2470.624,2023-4-30T13:24:24Z
2023-04-30T11:24:22Z,42.805,6.029,13.3033,4.60109,2470.624,2023-4-30T13:27:27Z
2023-04-30T11:27:25Z,42.805,6.029,13.3026,4.60089,2470.61,2023-4-30T13:30:30Z
2023-04-30T11:30:28Z,42.805,6.029,13.3036,4.60100,2470.661,2023-4-30T13:33:33Z
2023-04-30T11:33:31Z,42.805,6.029,13.3036,4.60115,2470.614,2023-4-30T13:36:36Z
2023-04-30T11:36:34Z,42.805,6.029,13.3028,4.60104,2470.637,2023-4-30T13:39:39Z
2023-04-30T11:39:37Z,42.805,6.029,13.3037,4.60109,2470.646,2023-4-30T13:42:42Z
2023-04-30T11:42:40Z,42.805,6.029,13.3028,4.60092,2470.661,2023-4-30T13:45:46Z
2023-04-30T11:45:44Z,42.805,6.029,13.3039,4.60091,2470.624,2023-4-30T13:48:49Z
2023-04-30T11:48:47Z,42.805,6.029,13.3049,4.60108,2470.661,2023-4-30T13:51:52Z
2023-04-30T11:51:50Z,42.805,6.029,13.3032,4.60107,2470.614,2023-4-30T13:54:55Z
2023-04-30T11:54:53Z,42.805,6.029,13.3040,4.60110,2470.624,2023-4-30T13:57:58Z
2023-04-30T11:57:56Z,42.805,6.029,13.3031,4.60097,2470.6,2023-4-30T14:01:01Z
2023-04-30T12:00:59Z,42.805,6.029,13.3036,4.60095,2470.624,2023-4-30T14:04:04Z
2023-04-30T12:04:02Z,42.805,6.029,13.3033,4.60098,2470.646,2023-4-30T14:07:07Z
2023-04-30T12:07:05Z,42.805,6.029,13.3034,4.60099,2470.661,2023-4-30T14:10:10Z
2023-04-30T12:10:08Z,42.805,6.029,13.3036,4.60103,2470.624,2023-4-30T14:13:13Z
2023-04-30T12:13:11Z,42.805,6.029,13.3037,4.60113,2470.624,2023-4-30T14:16:16Z
2023-04-30T12:16:14Z,42.805,6.029,13.3026,4.60097,2470.624,2023-4-30T14:19:19Z
2023-04-30T12:19:17Z,42.805,6.029,13.3034,4.60099,2470.646,2023-4-30T14:22:23Z
2023-04-30T12:22:20Z,42.805,6.029,13.3027,4.60110,2470.624,2023-4-30T14:25:26Z
2023-04-30T12:25:24Z,42.805,6.029,13.3031,4.60094,2470.646,2023-4-30T14:28:29Z
2023-04-30T12:28:27Z,42.805,6.029,13.3026,4.60085,2470.637,2023-4-30T14:31:32Z
2023-04-30T12:31:30Z,42.805,6.029,13.3029,4.60087,2470.693,2023-4-30T14:34:35Z
2023-04-30T12:34:33Z,42.805,6.029,13.3032,4.60103,2470.624,2023-4-30T14:37:38Z
2023-04-30T12:37:36Z,42.805,6.029,13.3040,4.60107,2470.646,2023-4-30T14:40:41Z
2023-04-30T12:40:39Z,42.805,6.029,13.3040,4.60098,2470.624,2023-4-30T14:43:44Z
2023-04-30T12:43:42Z,42.805,6.029,13.3037,4.60110,2470.661,2023-4-30T14:46:47Z
2023-04-30T12:46:45Z,42.805,6.029,13.3039,4.60092,2470.6,2023-4-30T14:49:50Z
2023-04-30T12:49:48Z,42.805,6.029,13.3037,4.60119,2470.646,2023-4-30T14:52:53Z
2023-04-30T12:52:51Z,42.805,6.029,13.3034,4.60110,2470.637,2023-4-30T14:55:56Z
2023-04-30T12:55:54Z,42.805,6.029,13.3036,4.60101,2470.624,2023-4-30T14:59:00Z
2023-04-30T12:58:57Z,42.805,6.029,13.3041,4.60112,2470.646,2023-4-30T15:02:03Z
2023-04-30T13:02:01Z,42.805,6.029,13.3049,4.60108,2470.646,2023-4-30T15:05:06Z
2023-04-30T13:05:04Z,42.805,6.029,13.3024,4.60102,2470.646,2023-4-30T15:08:09Z
2023-04-30T13:08:07Z,42.805,6.029,13.3032,4.60108,2470.67,2023-4-30T15:11:12Z
2023-04-30T13:11:10Z,42.805,6.029,13.3029,4.60095,2470.646,2023-4-30T15:14:15Z
2023-04-30T13:14:13Z,42.805,6.029,13.3040,4.60098,2470.624,2023-4-30T15:17:18Z
2023-04-30T13:17:16Z,42.805,6.029,13.3040,4.60113,2470.646,2023-4-30T15:20:21Z
2023-04-30T13:20:19Z,42.805,6.029,13.3031,4.60090,2470.637,2023-4-30T15:23:24Z
2023-04-30T13:23:22Z,42.805,6.029,13.3033,4.60102,2470.661,2023-4-30T15:26:27Z
2023-04-30T13:26:25Z,42.805,6.029,13.3030,4.60103,2470.624,2023-4-30T15:29:30Z
2023-04-30T13:29:28Z,42.805,6.029,13.3026,4.60097,2470.637,2023-4-30T15:32:34Z
2023-04-30T13:32:31Z,42.805,6.029,13.3026,4.60112,2470.67,2023-4-30T15:35:37Z
2023-04-30T13:35:34Z,42.805,6.029,13.3029,4.60094,2470.646,2023-4-30T15:38:40Z
2023-04-30T13:38:38Z,42.805,6.029,13.3033,4.60103,2470.661,2023-4-30T15:41:43Z
2023-04-30T13:41:41Z,42.805,6.029,13.3031,4.60087,2470.67,2023-4-30T15:44:46Z
2023-04-30T13:44:44Z,42.805,6.029,13.3035,4.60095,2470.646,2023-4-30T15:47:49Z
2023-04-30T13:47:47Z,42.805,6.029,13.3028,4.60088,2470.646,2023-4-30T15:50:52Z
2023-04-30T13:50:50Z,42.805,6.029,13.3033,4.60107,2470.646,2023-4-30T15:53:55Z
2023-04-30T13:53:53Z,42.805,6.029,13.3029,4.60102,2470.661,2023-4-30T15:56:58Z
2023-04-30T13:56:56Z,42.805,6.029,13.3024,4.60102,2470.624,2023-4-30T16:00:01Z
2023-04-30T13:59:59Z,42.805,6.029,13.3037,4.60110,2470.661,2023-4-30T16:03:04Z
2023-04-30T14:03:02Z,42.805,6.029,13.3046,4.60107,2470.646,2023-4-30T16:06:07Z
2023-04-30T14:06:05Z,42.805,6.029,13.3039,4.60113,2470.684,2023-4-30T16:09:10Z
2023-04-30T14:09:08Z,42.805,6.029,13.3031,4.60098,2470.67,2023-4-30T16:12:14Z
2023-04-30T14:12:11Z,42.805,6.029,13.3038,4.60106,2470.646,2023-4-30T16:15:17Z
2023-04-30T14:15:15Z,42.805,6.029,13.3028,4.60102,2470.693,2023-4-30T16:18:20Z
2023-04-30T14:18:18Z,42.805,6.029,13.3027,4.60100,2470.646,2023-4-30T16:21:23Z
2023-04-30T14:21:21Z,42.805,6.029,13.3030,4.60100,2470.67,2023-4-30T16:24:26Z
2023-04-30T14:24:24Z,42.805,6.029,13.3033,4.60105,2470.646,2023-4-30T16:27:29Z
2023-04-30T14:27:27Z,42.805,6.029,13.3030,4.60102,2470.67,2023-4-30T16:30:32Z
2023-04-30T14:30:30Z,42.805,6.029,13.3035,4.60103,2470.707,2023-4-30T16:33:36Z
2023-04-30T14:33:33Z,42.805,6.029,13.3036,4.60112,2470.661,2023-4-30T16:36:39Z
2023-04-30T14:36:37Z,42.805,6.029,13.3037,4.60112,2470.684,2023-4-30T16:39:42Z
2023-04-30T14:39:40Z,42.805,6.029,13.3032,4.60098,2470.67,2023-4-30T16:42:45Z
2023-04-30T14:42:43Z,42.805,6.029,13.3034,4.60106,2470.661,2023-4-30T16:45:48Z
2023-04-30T14:45:46Z,42.805,6.029,13.3028,4.60117,2470.646,2023-4-30T16:48:51Z
2023-04-30T14:48:49Z,42.805,6.029,13.3030,4.60092,2470.693,2023-4-30T16:51:54Z
2023-04-30T14:51:52Z,42.805,6.029,13.3026,4.60085,2470.693,2023-4-30T16:54:57Z
2023-04-30T14:54:55Z,42.805,6.029,13.3030,4.60094,2470.679,2023-4-30T16:58:00Z
2023-04-30T14:57:58Z,42.805,6.029,13.3038,4.60109,2470.656,2023-4-30T17:01:03Z
2023-04-30T15:01:01Z,42.805,6.029,13.3033,4.60101,2470.693,2023-4-30T17:04:06Z
2023-04-30T15:04:04Z,42.805,6.029,13.3034,4.60101,2470.684,2023-4-30T17:07:10Z
2023-04-30T15:07:07Z,42.805,6.029,13.3037,4.60102,2470.67,2023-4-30T17:10:13Z
2023-04-30T15:10:10Z,42.805,6.029,13.3026,4.60110,2470.646,2023-4-30T17:13:16Z
2023-04-30T15:13:14Z,42.805,6.029,13.3034,4.60102,2470.67,2023-4-30T17:16:19Z